Weather History for KACK - September, 2012

Change the Weather History Date:

Monday, September 3, 2012

  Actual Average Record
Temperature  
Mean Temperature 63 °F -  
Max Temperature 72 °F 73 °F 85 °F (1977)
Min Temperature 55 °F 59 °F 47 °F (1970)
Degree Days  
Heating Degree Days 2    
Growing Degree Days 13 (Base 50)    
Moisture  
Dew Point 57 °F    
Average Humidity 82    
Maximum Humidity 100    
Minimum Humidity 55    
Precipitation  
Precipitation 0.00 in - - ()
Sea Level Pressure  
Sea Level Pressure 30.18 in    
Wind  
Wind Speed 8 mph (ENE)    
Max Wind Speed 16 mph    
Max Gust Speed -    
Visibility 9 miles    
Events      
Averages and records for this station are not official NWS values.
T = Trace of Precipitation, MM = Missing Value Source: NWS Daily Summary

Daily Weather History Graph

Daily Weather History Graph

Search for Another Location

Airport or City:

Trip Planner

Search our weather history database for the weather conditions in past years. The results will help you decide how hot, cold, wet, or windy it might be!

Date:

Astronomy

Sep. 03, 2012 Rise Set
Actual Time 6:09 AM EDT 7:08 PM EDT
Civil Twilight 5:40 AM EDT 7:37 PM EDT
Nautical Twilight 5:07 AM EDT 8:10 PM EDT
Astronomical Twilight 4:32 AM EDT 8:45 PM EDT
Moon 8:23 PM EDT (9/3) 9:16 AM EDT (9/3)
Length of Visible Light 13h 56m
Length of Day
12h 59m
Waning Gibbous, 90% of the Moon is Illuminated
Sep 3
Waning Gibbous
Sep 8
Last Quarter
Sep 15
New
Sep 22
First Quarter
Sep 29
Full

Hourly Weather History & Observations

Time (EDT) Temp. Dew Point Humidity Pressure Visibility Wind Dir Wind Speed Gust Speed Precip Events Conditions
12:24 AM 59.0 °F 57.2 °F 94% 30.13 in 1.5 mi NNE 4.6 mph - N/A   Clear
12:37 AM 57.2 °F 57.2 °F 100% 30.13 in 4.0 mi NNE 5.8 mph - N/A   Clear
12:53 AM 57.0 °F 57.0 °F 100% 30.13 in 10.0 mi NNE 5.8 mph - N/A   Clear
1:53 AM 57.9 °F 57.0 °F 97% 30.12 in 10.0 mi NNE 5.8 mph - N/A   Clear
2:53 AM 57.9 °F 57.9 °F 100% 30.13 in 10.0 mi NNE 5.8 mph - N/A   Clear
3:53 AM 57.0 °F 57.0 °F 100% 30.13 in 10.0 mi NNE 6.9 mph - N/A   Clear
4:53 AM 55.4 °F 55.4 °F 100% 30.15 in 10.0 mi NE 6.9 mph - N/A   Clear
5:53 AM 60.1 °F 59.0 °F 96% 30.16 in 10.0 mi NE 6.9 mph - N/A   Clear
6:53 AM 61.0 °F 60.1 °F 97% 30.18 in 10.0 mi NE 6.9 mph - N/A   Clear
7:53 AM 64.9 °F 62.1 °F 90% 30.19 in 10.0 mi East 5.8 mph - N/A   Clear
8:53 AM 66.9 °F 57.9 °F 73% 30.20 in 10.0 mi East 10.4 mph - N/A   Clear
9:53 AM 70.0 °F 57.0 °F 63% 30.22 in 10.0 mi East 11.5 mph - N/A   Clear
10:53 AM 71.1 °F 55.0 °F 57% 30.21 in 10.0 mi East 12.7 mph - N/A   Mostly Cloudy
11:53 AM 71.1 °F 54.0 °F 55% 30.21 in 10.0 mi East 16.1 mph - N/A   Scattered Clouds
12:53 PM 71.1 °F 55.9 °F 59% 30.21 in 10.0 mi ESE 15.0 mph - N/A   Clear
1:53 PM 71.1 °F 55.0 °F 57% 30.21 in 10.0 mi East 11.5 mph - N/A   Clear
2:53 PM 70.0 °F 55.0 °F 59% 30.19 in 10.0 mi ESE 16.1 mph - N/A   Clear
3:53 PM 69.1 °F 55.0 °F 61% 30.19 in 10.0 mi ESE 12.7 mph - N/A   Clear
4:53 PM 68.0 °F 55.0 °F 63% 30.20 in 10.0 mi ESE 11.5 mph - N/A   Clear
5:53 PM 66.0 °F 55.9 °F 70% 30.19 in 10.0 mi East 9.2 mph - N/A   Clear
6:53 PM 63.0 °F 57.0 °F 81% 30.18 in 10.0 mi East 6.9 mph - N/A   Clear
7:53 PM 60.1 °F 57.0 °F 90% 30.18 in 10.0 mi East 5.8 mph - N/A   Clear
8:53 PM 60.1 °F 57.9 °F 93% 30.18 in 10.0 mi East 5.8 mph - N/A   Clear
9:53 PM 60.1 °F 59.0 °F 96% 30.19 in 10.0 mi East 6.9 mph - N/A   Clear
10:53 PM 61.0 °F 60.1 °F 97% 30.18 in 10.0 mi East 6.9 mph - N/A   Clear
11:53 PM 62.1 °F 61.0 °F 96% 30.18 in 10.0 mi East 5.8 mph - N/A   Clear